Weather History for KPRN - January, 2014

Change the Weather History Date:

Thursday, January 2, 2014

  Actual Average Record
Temperature  
Mean Temperature 44 °F -  
Max Temperature 57 °F 58 °F 77 °F (1966)
Min Temperature 30 °F 37 °F 12 °F (1928)
Degree Days  
Heating Degree Days 20    
Moisture  
Dew Point 45 °F    
Average Humidity 84    
Maximum Humidity 100    
Minimum Humidity 61    
Precipitation  
Precipitation 0.30 in - - ()
Sea Level Pressure  
Sea Level Pressure 29.98 in    
Wind  
Wind Speed 7 mph (WNW)    
Max Wind Speed 23 mph    
Max Gust Speed 32 mph    
Visibility 7 miles    
Events Rain    
Averages and records for this station are not official NWS values.
T = Trace of Precipitation, MM = Missing Value Source: NWS Daily Summary

Daily Weather History Graph

Daily Weather History Graph

Search for Another Location

Airport or City:

Trip Planner

Search our weather history database for the weather conditions in past years. The results will help you decide how hot, cold, wet, or windy it might be!

Date:

Astronomy

Jan. 02, 2014 Rise Set
Actual Time 6:46 AM CST 4:54 PM CST
Civil Twilight 6:20 AM CST 5:21 PM CST
Nautical Twilight 5:49 AM CST 5:51 PM CST
Astronomical Twilight 5:19 AM CST 6:21 PM CST
Moon 7:34 AM CST (1/2) 6:42 PM CST (1/2)
Length of Visible Light 11h 01m
Length of Day
10h 07m
Waxing Crescent, 3% of the Moon is Illuminated
Jan 2
Waxing Crescent
Jan 7
First Quarter
Jan 15
Full
Jan 23
Last Quarter
Jan 30
New

Hourly Weather History & Observations

Time (CST) Temp. Windchill Dew Point Humidity Pressure Visibility Wind Dir Wind Speed Gust Speed Precip Events Conditions
12:56 AM 48.9 °F - 46.9 °F 93% 30.07 in 6.0 mi SSE 4.6 mph - 0.01 in Rain Light Rain
1:56 AM 48.9 °F - 48.0 °F 97% 30.02 in 4.0 mi Variable 4.6 mph - 0.03 in Rain Light Rain
2:36 AM 48.2 °F - 48.2 °F 100% 30.01 in 6.0 mi SSE 4.6 mph - 0.00 in Rain Light Rain
2:56 AM 50.0 °F - 48.0 °F 93% 30.00 in 5.0 mi SE 3.5 mph - 0.01 in Rain Light Rain
3:40 AM 50.0 °F - 48.2 °F 94% 30.00 in 3.0 mi North 4.6 mph - 0.04 in Rain Rain
3:56 AM 50.0 °F - 48.0 °F 93% 30.00 in 4.0 mi North 4.6 mph - 0.04 in Rain Light Rain
4:36 AM 50.0 °F - 48.2 °F 94% 29.97 in 2.5 mi Calm Calm - 0.01 in Rain Light Rain
4:56 AM 50.0 °F - 48.9 °F 96% 29.96 in 3.0 mi ESE 3.5 mph - 0.02 in Rain Light Rain
5:04 AM 50.0 °F - 48.2 °F 94% 29.96 in 4.0 mi ESE 4.6 mph - 0.00 in Rain Light Rain
5:56 AM 50.0 °F - 48.9 °F 96% 29.94 in 3.0 mi ESE 3.5 mph - 0.02 in   Overcast
6:06 AM 50.0 °F - 48.2 °F 94% 29.94 in 2.0 mi ESE 3.5 mph - N/A   Overcast
6:13 AM 50.0 °F - 48.2 °F 94% 29.94 in 1.5 mi SE 3.5 mph - N/A   Overcast
6:46 AM 50.0 °F - 48.2 °F 94% 29.93 in 3.0 mi SSE 3.5 mph - 0.02 in Rain Light Rain
6:56 AM 50.0 °F - 48.9 °F 96% 29.93 in 3.0 mi SSE 4.6 mph - 0.02 in Rain Light Rain
7:32 AM 50.0 °F - 48.2 °F 94% 29.91 in 1.5 mi South 3.5 mph - 0.03 in Rain Rain
7:47 AM 51.8 °F - 50.0 °F 94% 29.91 in 3.0 mi Variable 3.5 mph - 0.04 in Rain Light Rain
7:56 AM 51.1 °F - 50.0 °F 96% 29.91 in 4.0 mi South 3.5 mph - 0.04 in   Overcast
8:19 AM 51.8 °F - 50.0 °F 94% 29.91 in 2.0 mi South 3.5 mph - 0.02 in Rain Rain
8:38 AM 51.8 °F - 50.0 °F 94% 29.95 in 3.0 mi WNW 13.8 mph 19.6 mph 0.05 in Rain Light Rain
8:46 AM 51.8 °F - 50.0 °F 94% 29.96 in 3.0 mi West 11.5 mph 19.6 mph 0.07 in Rain Rain
8:56 AM 52.0 °F - 51.1 °F 97% 29.95 in 3.0 mi West 5.8 mph 16.1 mph 0.09 in Rain Rain
9:07 AM 53.6 °F - 51.8 °F 94% 29.96 in 4.0 mi West 4.6 mph - 0.01 in Rain Light Rain
9:32 AM 53.6 °F - 51.8 °F 94% 29.95 in 8.0 mi Calm Calm - 0.02 in   Overcast
9:56 AM 53.1 °F - 52.0 °F 96% 29.94 in 10.0 mi WNW 4.6 mph - 0.02 in   Overcast
10:02 AM 53.6 °F - 51.8 °F 94% 29.94 in 10.0 mi West 4.6 mph - N/A   Overcast
10:16 AM 53.6 °F - 51.8 °F 94% 29.94 in 10.0 mi West 5.8 mph - N/A   Overcast
10:56 AM 55.0 °F - 52.0 °F 89% 29.92 in 10.0 mi WNW 10.4 mph - N/A   Overcast
11:08 AM 55.4 °F - 51.8 °F 88% 29.92 in 10.0 mi NW 13.8 mph 21.9 mph N/A   Overcast
11:56 AM 55.9 °F - 52.0 °F 87% 29.90 in 10.0 mi WNW 15.0 mph 20.7 mph N/A   Overcast
12:06 PM 57.2 °F - 51.8 °F 82% 29.90 in 10.0 mi WNW 10.4 mph 20.7 mph N/A   Overcast
12:13 PM 57.2 °F - 51.8 °F 82% 29.90 in 10.0 mi WNW 8.1 mph 18.4 mph N/A   Overcast
12:38 PM 57.2 °F - 51.8 °F 82% 29.89 in 10.0 mi NW 13.8 mph 19.6 mph N/A   Mostly Cloudy
12:53 PM 57.2 °F - 50.0 °F 77% 29.89 in 10.0 mi NW 11.5 mph 20.7 mph N/A   Scattered Clouds
12:56 PM 57.9 °F - 50.0 °F 75% 29.88 in 10.0 mi WNW 11.5 mph 20.7 mph N/A   Scattered Clouds
1:21 PM 57.2 °F - 48.2 °F 72% 29.90 in 10.0 mi NW 19.6 mph 26.5 mph N/A   Mostly Cloudy
1:49 PM 55.4 °F - 44.6 °F 67% 29.92 in 10.0 mi NW 15.0 mph 26.5 mph N/A   Scattered Clouds
1:56 PM 54.0 °F - 44.1 °F 69% 29.93 in 10.0 mi WNW 17.3 mph 28.8 mph N/A   Partly Cloudy
2:22 PM 53.6 °F - 42.8 °F 67% 29.94 in 10.0 mi NW 16.1 mph 26.5 mph N/A   Mostly Cloudy
2:56 PM 51.1 °F - 41.0 °F 68% 29.97 in 10.0 mi NW 12.7 mph 27.6 mph N/A   Overcast
3:11 PM 50.0 °F - 39.2 °F 66% 29.98 in 10.0 mi NW 13.8 mph 23.0 mph N/A   Overcast
3:23 PM 48.2 °F - 37.4 °F 66% 29.99 in 10.0 mi NW 16.1 mph 32.2 mph N/A   Overcast
3:56 PM 48.0 °F - 37.0 °F 66% 30.01 in 10.0 mi NNW 20.7 mph 27.6 mph N/A   Mostly Cloudy
4:05 PM 46.4 °F 38.3 °F 35.6 °F 66% 30.02 in 10.0 mi NNW 23.0 mph 31.1 mph N/A   Scattered Clouds
4:56 PM 44.1 °F 37.4 °F 32.0 °F 63% 30.07 in 10.0 mi NNW 13.8 mph 27.6 mph N/A   Clear
5:56 PM 41.0 °F 33.1 °F 30.0 °F 65% 30.11 in 10.0 mi NNW 15.0 mph 26.5 mph N/A   Clear
6:56 PM 37.9 °F 30.9 °F 28.0 °F 68% 30.14 in 10.0 mi NNW 10.4 mph 16.1 mph N/A   Clear
7:56 PM 36.0 °F 27.1 °F 28.0 °F 73% 30.17 in 10.0 mi NW 13.8 mph 19.6 mph N/A   Clear
8:56 PM 35.1 °F 26.4 °F 25.0 °F 67% 30.19 in 10.0 mi NNW 12.7 mph 21.9 mph N/A   Clear
9:56 PM 33.1 °F 24.4 °F 24.1 °F 70% 30.22 in 10.0 mi NW 11.5 mph 20.7 mph N/A   Clear
10:56 PM 32.0 °F 21.6 °F 19.9 °F 61% 30.25 in 10.0 mi NNW 15.0 mph 28.8 mph N/A   Clear
11:28 PM 30.2 °F 21.3 °F 19.4 °F 64% 30.25 in 10.0 mi NNW 10.4 mph 21.9 mph N/A   Mostly Cloudy